Location: Piotrkow Trybunalski
(51.4000°N, 19.6830°E)
Time: 22:35:57
(UTC+01:00)

ISS - Pass Details

Date: 26 January 2020
Orbit: 415 x 423 km, 51.6° (Epoch: 25 February)

Event Time Altitude Azimuth Distance (km) Brightness Sun altitude
Rises 18:23:02 0° 254° (WSW) 2,376 1.6 -19.0°
Reaches altitude 10° 18:25:08 10° 253° (WSW) 1,512 0.2 -19.4°
Maximum altitude 18:28:32 79° 167° (SSE) 436 -3.8 -19.9°
Enters shadow 18:28:35 79° 152° (SSE) 437 -3.9 -19.9°
